Location: St. Louis
(38.6270°N, 90.1994°W)
Time: 04:05:23
(UTC-05:00)

RS-15 - Pass Details

Date: 30 January 2022
Orbit: 1881 x 2163 km, 64.8° (Epoch: 20 May)

Event Time Altitude Azimuth Distance (km) Brightness Sun altitude
Rises 01:53:43 0° 328° (NNW) 5,674 10.5 -59.8°
Enters shadow 01:55:35 - 329° (NNW) 5,135 10.2 -59.5°
Exits shadow 02:21:18 12° 143° (SE) 4,455 9.9 -55.3°
Drops below altitude 10° 02:21:48 10° 143° (SE) 4,595 10.0 -55.2°
Sets 02:25:09 0° 145° (SE) 5,567 10.5 -54.6°
